Preview of NWS' New Version of Forecast
This preview is not operational and should not be used for support decisions.

Regional Weather Roundup (RWR)

Issued by National Weather Service (NWS)

                            
000
ASUS43 KDTX 210010
RWRMI 
MICHIGAN HOURLY REGIONAL WEATHER ROUNDUP
NATIONAL WEATHER SERVICE DETROIT/PONTIAC MI
800 PM EDT WED MAR 20 2019

NOTE: "FAIR" INDICATES FEW OR NO CLOUDS BELOW 12,000 FEET WITH NO
SIGNIFICANT WEATHER AND/OR OBSTRUCTION TO VISIBILITY.

MIZ047>049-052>055-059>063-066>070-074>076-081>083-210100-
SOUTHEAST LOWER MICHIGAN
  
CITY           SKY/WX    TMP DP  RH WIND       PRES   REMARKS
ADRIAN         LGT RAIN  40  37  89 S9        29.97F WCI  34          
6HR MIN TEMP:  40; 6HR MAX TEMP:  44; 6HR PCP:  0.04;                

ALMA           LGT SNOW  33  32  96 SE3       29.96S                  
6HR MIN TEMP:  33; 6HR MAX TEMP:  39;                                

ANN ARBOR      LGT RAIN  40  37  89 S12       29.97S WCI  33          
BAD AXE        MIX PCPN  36  35  93 S8        29.99F WCI  30          
6HR MIN TEMP:  36; 6HR MAX TEMP:  49;                                

CARO           LGT RAIN  36  35  96 SE5       29.98F WCI  32          
DETROIT CITY   LGT RAIN  42  34  73 S8        30.00F                  
6HR MIN TEMP:  41; 6HR MAX TEMP:  48; 6HR PCP:  0.02;                

DETROIT        LGT RAIN  42  35  76 S13       29.99F                  
6HR MIN TEMP:  41; 6HR MAX TEMP:  49; 6HR PCP:  0.03;                

FLINT          LGT RAIN  37  35  92 SE9       29.97F WCI  30          
6HR MIN TEMP:  36; 6HR MAX TEMP:  40; 6HR PCP:  0.24;                

GROSSE ILE     MIX PCPN  41  37  84 S12       29.99S                  
6HR MIN TEMP:  39; 6HR MAX TEMP:  43;                                

HILLSDALE      DRIZZLE   40  37  87 S8        29.93S WCI  35          
6HR MIN TEMP:  38; 6HR MAX TEMP:  41; 6HR PCP:  0.04;                

HOWELL         LGT RAIN  38  36  91 SE6       29.95F WCI  34          
6HR MIN TEMP:  37; 6HR MAX TEMP:  38; 6HR PCP:  0.16;                


CITY           SKY/WX    TMP DP  RH WIND       PRES   REMARKS
JACKSON        CLOUDY    40  37  89 SE9       29.93F WCI  34          
6HR MIN TEMP:  37; 6HR MAX TEMP:  40; 6HR PCP:  0.13;                

LAMBERTVILLE   DRIZZLE   41  38  89 S7        29.98F                  
6HR MIN TEMP:  41; 6HR MAX TEMP:  49;                                

LANSING        LGT RAIN  37  36  96 SE3       29.95S FOG              
6HR MIN TEMP:  35; 6HR MAX TEMP:  38; 6HR PCP:  0.31;                

LAPEER         RAIN      38  37  97 SE5       29.99F WCI  34          
6HR MIN TEMP:  38; 6HR MAX TEMP:  46; 6HR PCP:  0.06;                

MASON          LGT RAIN  38  37  93 SE5       29.94S WCI  35          
6HR MIN TEMP:  36; 6HR MAX TEMP:  39;                                

MONROE         RAIN      41  40  97 SW10G17   29.99S                  
6HR MIN TEMP:  41; 6HR MAX TEMP:  47; 6HR PCP:  0.01;                

MT. CLEMENS    CLOUDY    38  38 100 SE12      29.99F WCI  31          
6HR MIN TEMP:  38; 6HR MAX TEMP:  48; 6HR PCP:  0.12;                

PONTIAC        LGT RAIN  38  37  97 E8        29.96F FOG     WCI  32  
6HR MIN TEMP:  38; 6HR MAX TEMP:  43; 6HR PCP:  0.11;                

PORT HOPE        N/A     38  35  89 S9        29.99S WCI  31          
6HR MIN TEMP:  38; 6HR MAX TEMP:  50; 6HR PCP:  0.06;                

PORT HURON     DRIZZLE   39  36  87 SE7       30.02F WCI  34          
TRI CITIES     LGT RAIN  35  34  96 SE8       29.98S FOG     WCI  29  
6HR MIN TEMP:  35; 6HR MAX TEMP:  41; 6HR PCP:  0.14;                

MIDLAND        RAIN      36  34  92 SE6       29.97S WCI  31          
6HR MIN TEMP:  36; 6HR MAX TEMP:  44; 6HR PCP:  0.03;                

TROY           CLOUDY    41  35  80 SE6       30.00F                  
SAGINAW HB     LGT RAIN  37  36  93 SE7       29.98F WCI  32          
$$
MIZ043>046-050>051-056>058-064>065-071>073-077>080-210100-
SOUTHWEST LOWER MICHIGAN
  
CITY           SKY/WX    TMP DP  RH WIND       PRES   REMARKS
BATTLE CREEK   LGT RAIN  38  37  97 S6        29.92F FOG     WCI  33  
6HR MIN TEMP:  34; 6HR MAX TEMP:  38; 6HR PCP:  0.17;                

BENTON HARBOR  LGT RAIN  41  38  89 S5        29.91S FOG              
6HR MIN TEMP:  39; 6HR MAX TEMP:  41; 6HR PCP:  0.18;                

BIG RAPIDS     SNOW      33  33  99 SE3       29.92S VSB 1/2          
6HR MIN TEMP:  33; 6HR MAX TEMP:  40; 6HR PCP:  0.02;                

COLDWATER      LGT RAIN  41  39  93 S5        29.93S                  
6HR MIN TEMP:  37; 6HR MAX TEMP:  42;                                

FREMONT        CLOUDY    34  34 100 SE3       29.92S FOG              
6HR MIN TEMP:  34; 6HR MAX TEMP:  39;                                

HOLLAND        CLOUDY    36  35  96 SE3       29.91S FOG              
6HR MIN TEMP:  33; 6HR MAX TEMP:  37; 6HR PCP:  0.18;                

GRAND RAPIDS   LGT RAIN  33  32  96 E5        29.92F FOG     WCI  29  
6HR MIN TEMP:  33; 6HR MAX TEMP:  35; 6HR PCP:  0.22;                

IONIA          LGT RAIN  34  33  96 SE3       29.93S                  
6HR MIN TEMP:  33; 6HR MAX TEMP:  36; 6HR PCP:  0.16;                

KALAMAZOO      LGT RAIN  39  38  96 S3        29.92F FOG              
6HR MIN TEMP:  34; 6HR MAX TEMP:  39; 6HR PCP:  0.18;                

LUDINGTON      RAIN      36  35  96 SE6       29.91S WCI  31          
6HR MIN TEMP:  36; 6HR MAX TEMP:  43;                                

MARSHALL       DRIZZLE   39  39 100 S3        29.92S                  
6HR MIN TEMP:  35; 6HR MAX TEMP:  39; 6HR PCP:  0.16;                

MOUNT PLEASANT LGT SNOW  34  33  94 SE3       29.95F                  
6HR MIN TEMP:  34; 6HR MAX TEMP:  43; 6HR PCP:  0.07;                

MUSKEGON       LGT RAIN  35  32  88 E7        29.92S FOG     WCI  29  
6HR MIN TEMP:  34; 6HR MAX TEMP:  38; 6HR PCP:  0.18;                

SOUTH HAVEN    LGT RAIN  39  38  94 CALM      29.91F                  
$$
MIZ016>042-210100-
NORTHERN LOWER MICHIGAN
  
CITY           SKY/WX    TMP DP  RH WIND       PRES   REMARKS
ALPENA         CLOUDY    40  33  76 S13       29.95S WCI  32          
6HR MIN TEMP:  40; 6HR MAX TEMP:  48; 6HR PCP: TRACE;                

BEAVER ISLAND  RAIN      36  34  94 SW6       29.93R WCI  31          
6HR MIN TEMP:  35; 6HR MAX TEMP:  39;                                

BELLAIRE       MIX PCPN  39  35  86 CALM      29.93S                  
6HR MIN TEMP:  39; 6HR MAX TEMP:  46;                                

CADILLAC       CLOUDY    36  35  95 S5        29.89F WCI  32          
CHARLEVOIX     LGT RAIN  37  37  97 CALM      29.95S                  
6HR MIN TEMP:  37; 6HR MAX TEMP:  43;                                

FRANKFORT      DRIZZLE   40  36  84 SE3       29.91S                  
GAYLORD        LGT RAIN  35  33  92 S9        29.91S WCI  28          
6HR MIN TEMP:  35; 6HR MAX TEMP:  42; 6HR PCP: TRACE;                

GRAYLING         N/A     36  34  93 S5        29.91S FOG     WCI  32  
6HR MIN TEMP:  35; 6HR MAX TEMP:  43; 6HR PCP:  0.01;                

HARBOR SPRINGS LGT RAIN  38  37  97 CALM      29.93R                  
HOUGHTON LAKE  LGT SNOW  34  32  92 SE7       29.93S FOG     WCI  28  
6HR MIN TEMP:  34; 6HR MAX TEMP:  44; 6HR PCP:  0.03;                

MANISTEE       LGT RAIN  36  35  96 SE6       29.91S WCI  31          
OSCODA         MIX PCPN  36  35  97 S8        29.98S WCI  29          
6HR MIN TEMP:  36; 6HR MAX TEMP:  47;                                

PELLSTON       LGT RAIN  36  35  96 CALM      29.94R FOG              
6HR MIN TEMP:  37; 6HR MAX TEMP:  44; 6HR PCP:  0.02;                

ROGERS CITY    CLOUDY    36  33  90 E3        29.96S                  
TRAVERSE CITY  LGT RAIN  40  36  86 CALM      29.91R                  
6HR MIN TEMP:  39; 6HR MAX TEMP:  48; 6HR PCP: TRACE;                

$$
MIZ007>008-015-210100-
EASTERN UPPER MICHIGAN
  
CITY           SKY/WX    TMP DP  RH WIND       PRES   REMARKS
KINROSS        MIX PCPN  36  34  92 S3        29.94R FOG              
6HR MIN TEMP:  36; 6HR MAX TEMP:  41; 6HR PCP: TRACE;                

MACKINAC ISLAN LGT RAIN  37  37 100 CALM      29.94R                  
6HR MIN TEMP:  37; 6HR MAX TEMP:  41;                                

NEWBERRY       CLOUDY    34  32  93 S3        29.92R FOG              
6HR MIN TEMP:  33; 6HR MAX TEMP:  36; 6HR PCP:  0.01;                

S. S. MARIE    CLOUDY    37  34  89 SE3       29.93S                  
6HR MIN TEMP:  37; 6HR MAX TEMP:  41; 6HR PCP:  0.04;                

MUNISING         N/A     34  32  92 CALM      29.91R                  
6HR MIN TEMP:  34; 6HR MAX TEMP:  44;                                

$$
MIZ004>006-011>014-085-210100-
CENTRAL UPPER MICHIGAN
  
CITY           SKY/WX    TMP DP  RH WIND       PRES   REMARKS
MANISTIQUE     DRIZZLE   35  29  81 S3        29.91S                  
6HR MIN TEMP:  34; 6HR MAX TEMP:  35;                                

ESCANABA       LGT RAIN  35  33  92 SE3       29.91R FOG              
6HR MIN TEMP:  35; 6HR MAX TEMP:  39; 6HR PCP:  0.01;                

MENOMINEE      LGT RAIN  36  34  92 CALM      29.90R FOG              
6HR MIN TEMP:  36; 6HR MAX TEMP:  44; 6HR PCP:  0.01;                

SAWYER-GWINN   FOG       32  32 100 N8        29.89R VSB 1/2 WCI  25  
$$
MIZ001>003-009>011-084-210100-
WESTERN UPPER MICHIGAN
  
CITY           SKY/WX    TMP DP  RH WIND       PRES   REMARKS
IRON MOUNTAIN  CLOUDY    36  32  85 N5        29.88R WCI  32          
6HR MIN TEMP:  36; 6HR MAX TEMP:  40; 6HR PCP: TRACE;                

HOUGHTON       CLOUDY    34  31  88 NE5       29.93R WCI  30          
6HR MIN TEMP:  34; 6HR MAX TEMP:  35; 6HR PCP: TRACE;                

COPPER HARBOR    N/A     33  31  92 CALM      29.95R                  
6HR MIN TEMP:  33; 6HR MAX TEMP:  36;                                

IRONWOOD       MIX PCPN  32  31  96 N7        29.96R VSB 1/4 WCI  26  
6HR MIN TEMP:  32; 6HR MAX TEMP:  36;                                

$$

ABBREVIATIONS USED IN REMARKS
   TC - TEMPERATURE IN CELSIUS
  WCI - WIND CHILL INDEX
   HX - HEAT INDEX
  VSB - VISIBILITY